DRAGON CRS-14

Last updated on Sun May 06 2018 00:15:07 GMT+0000 (Coordinated Universal Time)

1 43267U 18032A 18124.75998068 .00001739 00000-0 33432-4 0 9993 2 43267 51.6425 235.1983 0003395 49.1570 107.8277 15.54200133 4969
UTC large
Height (km)
Speed (km/s)
/
Latitude / Longitude
Inclination (degrees)
Orbital Period (minutes)
Azimuth
Elevation
Range (km)
Doppler Factor

Next 0 passes for location: London (51.5072 / 0.1276)

Sorry there are no passes over London.